Location: Unspecified
(0.0000°N, 0.0000°E)
Time: 06:36:19
(UTC+02:00)

deb Ariane - Visible Passes

Search period start: 03 September 2014 00:00
Search period end: 13 September 2014 00:00
Orbit: 157 x 16023 km, 7.4° (Epoch: 02 September)

Date Brightness Start Highest point End Pass type
(mag) Time Alt. Az. Time Alt. Az. Time Alt. Az.
03 Sep 10.3 00:26:05 35° E 00:26:05 35° E 01:59:47 10° E visible
03 Sep 9.6 05:14:17 46° W 07:13:45 78° S 07:50:50 10° E visible
03 Sep 7.9 22:53:34 10° W 23:09:44 86° N 01:59:41 10° E visible
04 Sep 9.6 05:14:00 46° W 07:13:03 79° S 07:50:22 10° E visible
04 Sep 7.8 22:51:28 10° W 23:07:17 86° N 01:55:25 10° E visible
05 Sep 9.6 05:11:04 47° W 07:08:32 79° S 07:47:05 10° E visible
05 Sep 7.8 22:46:38 10° W 23:01:48 87° N 01:46:48 10° E visible
06 Sep 9.7 05:05:32 49° WSW 07:00:05 79° S 07:41:00 10° E visible
06 Sep 7.7 22:39:06 10° W 22:53:23 87° N 01:33:32 10° E visible
07 Sep 9.6 04:57:22 51° WSW 06:47:25 79° S 07:32:08 10° E visible
07 Sep 7.5 22:28:53 10° W 22:42:05 86° N 01:15:01 10° E visible
08 Sep 9.6 04:46:38 55° WSW 06:30:04 79° S 07:20:26 10° E visible
08 Sep 7.4 22:16:01 10° W 22:28:00 85° N 00:50:15 10° E visible
09 Sep 9.5 03:27:59 10° W 06:07:13 79° S 07:05:54 10° E visible
09 Sep 7.1 22:00:31 10° WNW 22:11:12 84° N 00:17:55 10° E visible
10 Sep 9.4 03:10:03 10° W 05:37:30 79° S 06:48:30 10° E visible
10 Sep 6.9 21:42:24 10° WNW 21:51:48 83° N 23:37:06 10° E visible
11 Sep 9.3 02:49:31 10° W 04:59:09 80° S 06:28:09 10° E visible
11 Sep 6.6 21:21:43 10° WNW 21:29:51 81° N 21:50:43 34° E visible
12 Sep 9.1 02:26:27 10° W 04:11:56 80° S 06:04:46 10° E visible
12 Sep 6.3 20:58:28 10° WNW 21:05:24 78° NNE 21:28:06 26° E visible
